Milwaukee Timmerman, WI

11:29 AM CST on November 24, 2017 (GMT -0600)
Timmerman

Weather History for KMWC - November, 2011

Change the Weather History Date:

Friday, November 18, 2011

  Actual Average Record
Temperature  
Mean Temperature 36 °F -  
Max Temperature 48 °F 47 °F 70 °F (1975)
Min Temperature 24 °F 32 °F 7 °F (1959)
Degree Days  
Heating Degree Days 29    
Moisture  
Dew Point 15 °F    
Average Humidity 41    
Maximum Humidity 59    
Minimum Humidity 25    
Precipitation  
Precipitation 0.00 in - - ()
Sea Level Pressure  
Sea Level Pressure 29.96 in    
Wind  
Wind Speed 10 mph (SSW)    
Max Wind Speed 23 mph    
Max Gust Speed 34 mph    
Visibility 10 miles    
Events      
Averages and records for this station are not official NWS values.
T = Trace of Precipitation, MM = Missing Value Source: NWS Daily Summary

Daily Weather History Graph

Daily Weather History Graph

Search for Another Location

Airport or City:

Trip Planner

Search our weather history database for the weather conditions in past years. The results will help you decide how hot, cold, wet, or windy it might be!

Date:

Astronomy

Nov. 18, 2011 Rise Set
Actual Time 6:48 AM CST 4:25 PM CST
Civil Twilight 6:17 AM CST 4:56 PM CST
Nautical Twilight 5:42 AM CST 5:31 PM CST
Astronomical Twilight 5:09 AM CST 6:04 PM CST
Moon 11:59 PM CST (11/18) 12:22 PM CST (11/18)
Length of Visible Light 10h 39m
Length of Day
9h 37m
Waning Gibbous, 49% of the Moon is Illuminated
Nov 18
Waning Gibbous
Nov 25
New
Dec 2
First Quarter
Dec 10
Full
Dec 17
Last Quarter

Hourly Weather History & Observations

Time (CST) Temp. Windchill Dew Point Humidity Pressure Visibility Wind Dir Wind Speed Gust Speed Precip Events Conditions
12:15 AM 24.8 °F 20.5 °F 12.2 °F 59% 30.14 in 10.0 mi South 3.5 mph - N/A   Clear
12:35 AM 26.6 °F 22.6 °F 12.2 °F 55% 30.14 in 10.0 mi South 3.5 mph - N/A   Clear
12:55 AM 26.6 °F 22.6 °F 12.2 °F 55% 30.13 in 10.0 mi South 3.5 mph - N/A   Clear
1:15 AM 26.6 °F 21.2 °F 12.2 °F 55% 30.13 in 10.0 mi South 4.6 mph - N/A   Clear
1:35 AM 26.6 °F 20.0 °F 14.0 °F 59% 30.12 in 10.0 mi South 5.8 mph - N/A   Clear
2:35 AM 28.4 °F 19.7 °F 14.0 °F 55% 30.11 in 10.0 mi South 9.2 mph - N/A   Clear
2:55 AM 28.4 °F 19.1 °F 14.0 °F 55% 30.10 in 10.0 mi South 10.4 mph - N/A   Clear
3:15 AM 28.4 °F 20.4 °F 14.0 °F 55% 30.09 in 10.0 mi South 8.1 mph - N/A   Clear
3:35 AM 28.4 °F 20.4 °F 14.0 °F 55% 30.08 in 10.0 mi South 8.1 mph - N/A   Clear
3:55 AM 28.4 °F 18.5 °F 14.0 °F 55% 30.07 in 10.0 mi South 11.5 mph - N/A   Clear
4:15 AM 30.2 °F 21.3 °F 14.0 °F 51% 30.06 in 10.0 mi South 10.4 mph - N/A   Clear
4:35 AM 30.2 °F 21.3 °F 12.2 °F 47% 30.06 in 10.0 mi South 10.4 mph - N/A   Clear
4:55 AM 30.2 °F 21.3 °F 14.0 °F 51% 30.05 in 10.0 mi South 10.4 mph - N/A   Clear
5:35 AM 32.0 °F 23.0 °F 14.0 °F 48% 30.03 in 10.0 mi South 11.5 mph - N/A   Clear
5:55 AM 32.0 °F 22.5 °F 14.0 °F 48% 30.02 in 10.0 mi South 12.7 mph 18.4 mph N/A   Clear
6:45 AM 33.8 °F 24.8 °F 12.2 °F 41% 30.02 in 10.0 mi SSW 12.7 mph 19.6 mph N/A   Clear
7:45 AM 33.8 °F 24.3 °F 12.2 °F 41% 30.00 in 10.0 mi SSW 13.8 mph 23.0 mph N/A   Clear
8:45 AM 39.2 °F 32.0 °F 15.8 °F 39% 29.98 in 10.0 mi South 11.5 mph 23.0 mph N/A   Clear
9:45 AM 42.8 °F 34.8 °F 12.2 °F 29% 29.97 in 10.0 mi SSW 17.3 mph 28.8 mph N/A   Clear
10:45 AM 44.6 °F 36.4 °F 12.2 °F 27% 29.95 in 10.0 mi SSW 20.7 mph 29.9 mph N/A   Clear
11:45 AM 46.4 °F 38.3 °F 12.2 °F 25% 29.91 in 10.0 mi SW 23.0 mph 34.5 mph N/A   Clear
12:45 PM 46.4 °F 38.3 °F 14.0 °F 27% 29.87 in 10.0 mi SSW 23.0 mph 34.5 mph N/A   Clear
1:45 PM 46.4 °F 38.7 °F 15.8 °F 29% 29.84 in 10.0 mi SSW 20.7 mph 28.8 mph N/A   Clear
2:45 PM 46.4 °F 40.1 °F 15.8 °F 29% 29.82 in 10.0 mi SSW 15.0 mph 24.2 mph N/A   Clear
3:45 PM 48.2 °F - 15.8 °F 27% 29.81 in 10.0 mi SSW 12.7 mph 27.6 mph N/A   Clear
5:45 PM 44.6 °F 39.2 °F 15.8 °F 31% 29.83 in 10.0 mi South 10.4 mph 17.3 mph N/A   Clear
6:45 PM 44.6 °F 37.8 °F 15.8 °F 31% 29.84 in 10.0 mi SSW 15.0 mph - N/A   Clear
7:45 PM 44.6 °F 37.4 °F 15.8 °F 31% 29.85 in 10.0 mi SSW 16.1 mph - N/A   Clear
8:15 PM 42.8 °F 37.0 °F 17.6 °F 36% 29.84 in 10.0 mi SSW 10.4 mph - N/A   Clear
8:45 PM 42.8 °F 35.1 °F 17.6 °F 36% 29.85 in 10.0 mi SSW 16.1 mph - N/A   Clear
8:55 PM 42.8 °F 36.6 °F 17.6 °F 36% 29.85 in 10.0 mi SSW 11.5 mph 20.7 mph N/A   Clear
9:15 PM 42.8 °F 35.8 °F 17.6 °F 36% 29.84 in 10.0 mi SSW 13.8 mph 20.7 mph N/A   Clear
9:35 PM 42.8 °F 36.6 °F 17.6 °F 36% 29.85 in 10.0 mi SSW 11.5 mph 20.7 mph N/A   Clear
9:55 PM 42.8 °F 36.2 °F 17.6 °F 36% 29.85 in 10.0 mi SSW 12.7 mph 23.0 mph N/A   Clear
10:15 PM 42.8 °F 35.4 °F 17.6 °F 36% 29.85 in 10.0 mi SSW 15.0 mph 23.0 mph N/A   Clear
10:35 PM 42.8 °F 35.8 °F 17.6 °F 36% 29.85 in 10.0 mi SSW 13.8 mph 18.4 mph N/A   Clear
10:55 PM 41.0 °F 34.3 °F 17.6 °F 39% 29.85 in 10.0 mi SSW 11.5 mph 16.1 mph N/A   Clear
11:15 PM 41.0 °F 33.9 °F 17.6 °F 39% 29.85 in 10.0 mi SSW 12.7 mph 18.4 mph N/A   Clear
11:35 PM 41.0 °F 33.1 °F 17.6 °F 39% 29.85 in 10.0 mi SSW 15.0 mph 18.4 mph N/A   Clear
11:55 PM 41.0 °F 34.3 °F 17.6 °F 39% 29.85 in 10.0 mi SSW 11.5 mph 20.7 mph N/A   Clear